Regional Weather Roundup
Issued by NWS

Home | Current Version | Previous Version | Graphics & Text | Print | Product List | Glossary On
Versions: 1 2 3 4 5 6 7 8 9 10 11 12 13 14 15 16 17 18 19 20 21 22 23 24 25 26 27 28 29 30 31 32 33 34 35 36 37 38 39 40 41 42 43 44 45 46 47 48 49 50
000
ASUS43 KDMX 060107
RWRIA

WEATHER ROUNDUP FOR IOWA
NATIONAL WEATHER SERVICE DES MOINES IA
700 PM CST THU MAR 05 2015

NOTE: "FAIR" INDICATES FEW OR NO CLOUDS BELOW 12,000 FEET WITH NO
SIGNIFICANT WEATHER AND/OR OBSTRUCTIONS TO VISIBILITY.

* - THESE STATIONS ARE NOT NWS STATIONS...THUS NOT UNDER NWS
QUALITY CONTROL.  THEY ALSO DO NOT REPORT WEATHER SUCH
AS PRECIPITATION OR FOG.

IAZ001>003-012>014-020>022-031>034-043>046-060200-
   NORTHWEST IOWA

CITY           SKY/WX    TMP DP  RH WIND       PRES   REMARKS
CARROLL *      CLEAR     18   7  62 S6        30.41S WCI   9
CHEROKEE *     CLEAR     19   7  58 S9        30.36F WCI   9
DENISON *      CLEAR     21   5  49 S9        30.37S WCI  11
LE MARS *      CLEAR     25   7  46 SE10      30.33F WCI  15
ORANGE CITY *  CLEAR     23   7  50 S8        30.31S WCI  14
SHELDON *      CLEAR     19   7  58 S12       30.31S WCI   7
SIOUX CITY     CLEAR     27   6  41 SE10      30.35S WCI  17
SPENCER        CLEAR     15   5  64 S10       30.35F WCI   2
STORM LAKE *   CLEAR     16   5  62 S12       30.37S WCI   3
$$

IAZ055>058-069>071-079>083-090>094-060200-
   SOUTHWEST IOWA

CITY           SKY/WX    TMP DP  RH WIND       PRES   REMARKS
ATLANTIC *     CLEAR     23   5  46 S6        30.42S WCI  16
AUDUBON *      CLEAR     18   5  57 CALM      30.41S
CLARINDA *     CLEAR     21   3  45 S5        30.47S WCI  15
COUNCIL BLFS * CLEAR     23   7  50 S9        30.38S WCI  13
CRESTON *      CLEAR     19   3  49 S7        30.44S WCI  10
HARLAN  *      CLEAR     23   7  50 S7        30.44S WCI  15
LAMONI         CLEAR     21   4  47 SE3       30.46F
RED OAK *      CLEAR     23   5  46 S7        30.44S WCI  15
SHENANDOAH *   CLEAR     23   5  46 SE9       30.45S WCI  13
$$

IAZ047>049-059>061-072>074-084-060200-
   CENTRAL IOWA

CITY           SKY/WX    TMP DP  RH WIND       PRES   REMARKS
AMES           CLEAR     13   3  64 SE7       30.47S WCI   3
ANKENY *       CLEAR     16   5  62 S6        30.48S WCI   7
CHARITON *     CLEAR     18   5  57 SE7       30.48F WCI   8
DES MOINES     CLEAR     20   1  43 SE6       30.47F WCI  12
GRINNELL*      CLEAR     12   1  62 SE5       30.49F WCI   4
KNOXVILLE *    CLEAR     18   3  53 CALM      30.48F
MARSHALLTOWN   PTCLDY     7  -2  66 SE8       30.47F WCI  -6
PELLA *        CLEAR     14   7  73 SE6       30.51F WCI   5
PERRY *          N/A     18   9  68 S8        30.45S WCI   7
$$

IAZ004>006-015-016-023>025-035-036-060200-
   NORTH CENTRAL IOWA

CITY           SKY/WX    TMP DP  RH WIND       PRES   REMARKS
ALGONA *       CLEAR     16 N/A N/A S9        30.40F WCI   4
CLARION *      CLEAR     12   5  73 S9        30.44S WCI   0
ESTHERVILLE    CLEAR     14   5  67 S10       30.35F WCI   1
FORT DODGE *   CLEAR     16   3  57 SE6       30.43S WCI   7
MASON CITY     CLEAR      4  -2  76 S8        30.44S WCI  -9
FOREST CITY *  CLEAR      9   0  66 S8        30.41S WCI  -4
IOWA FALLS *     N/A      5  -2  72 SE7       30.46S WCI  -7
$$

IAZ007>011-017>019-026>030-037>042-050>054-066-060200-
   NORTHEAST IOWA

CITY           SKY/WX    TMP DP  RH WIND       PRES   REMARKS
CEDAR RAPIDS   PTCLDY     6  -2  69 CALM      30.52S
CHARLES CITY * CLEAR      5  -4  66 S9        30.46F WCI  -9
CLINTON *        N/A      3  -4  72 W6        30.57S WCI  -8
DECORAH *      CLEAR      5  -6  61 SW3       30.46R
DUBUQUE        PTCLDY     3  -6  66 W8        30.50R WCI -10
MONTICELLO *   CLEAR      3  -4  72 CALM      30.53S
OELWEIN *      CLEAR      1  -6  71 S10       30.49S WCI -14
WATERLOO       MOCLDY     6  -2  69 S6        30.50S WCI  -4
$$

IAZ064-065-067-068-078-060200-
   EAST CENTRAL IOWA

CITY           SKY/WX    TMP DP  RH WIND       PRES   REMARKS
DAVENPORT      PTCLDY     7  -2  66 NW3       30.55S
IOWA CITY      PTCLDY    10  -1  61 SW3       30.56F
MT. PLEASANT * CLEAR      9   1  72 E7        30.55F WCI  -3
MUSCATINE *    CLEAR     10   1  67 CALM      30.58S
QUAD CITIES    PTCLDY    11  -1  58 W6        30.56R WCI   1
$$

IAZ062-063-075>077-085>089-095>099-060200-
   SOUTHEAST IOWA

CITY           SKY/WX    TMP DP  RH WIND       PRES   REMARKS
BURLINGTON     CLEAR     10   0  63 CALM      30.56R
FAIRFIELD *    CLEAR     12   0  57 CALM      30.54S
FORT MADISON * CLEAR     12   1  62 CALM      30.56S
KEOKUK *       CLEAR     12   3  67 E3        30.56R
OSKALOOSA *      N/A     14   5  67 CALM      30.52S
CENTERVILLE *  CLEAR     18   3  53 CALM      30.51F
OTTUMWA        CLEAR     14   3  61 E6        30.52S WCI   5
WASHINGTON *   CLEAR     12   5  73 NE3       30.55S
$$

ABBREVIATIONS USED IN REMARKS
   TC - TEMPERATURES IN CELSIUS
  WCI - WIND CHILL INDEX
   HX - HEAT INDEX
  VSB - VISIBILITY
$$




USA.gov is the U.S. government's official web portal to all federal, state and local government web resources and services.